Regional Weather Roundup
Issued by NWS

Home | Current Version | Previous Version | Graphics & Text | Print | Product List | Glossary On
Versions: 1 2 3 4 5 6 7 8 9 10 11 12 13 14 15 16 17 18 19 20 21 22 23 24 25 26 27 28 29 30 31 32 33 34 35 36 37 38 39 40 41 42 43 44 45 46 47 48 49 50
000
ASUS43 KLMK 162002
RWRKY
KENTUCKY REGIONAL WEATHER ROUNDUP
NATIONAL WEATHER SERVICE LOUISVILLE KY
300 PM EST SAT DEC 16 2017

NOTE "FAIR" INDICATES FEW OR NO CLOUDS BELOW 12,000 FEET
WITH NO SIGNIFICANT WEATHER AND/OR OBSTRUCTIONS TO VISIBILITY.

KYZ001>023-026-027-061>063-070>075-162100-
WESTERN AND SOUTH CENTRAL KENTUCKY

CITY           SKY/WX    TMP DP  RH WIND       PRES   REMARKS
PADUCAH        SUNNY     54  27  35 SW14G21   30.09F
HENDERSON      SUNNY     53  31  42 S20       30.08F
OWENSBORO      SUNNY     53  30  41 SW17      30.10S
HOPKINSVILLE   CLOUDY    52  28  39 SW16      30.13F
BOWLING GREEN  SUNNY     52  30  43 SW16G25   30.15F
GLASGOW        NOT AVBL
$$

KYZ024-025-028>034-038-045-046-053-162100-
NORTH CENTRAL KENTUCKY

CITY           SKY/WX    TMP DP  RH WIND       PRES   REMARKS
LOUISVILLE/SDF MOSUNNY   53  27  36 SW14G28   30.08F
LOUISVILLE/LOU SUNNY     52  28  39 SW17      30.09F
FORT KNOX      SUNNY     52  27  38 SW14G22   30.08F
$$

KYZ035>037-039>044-047>052-055>060-089>105-162100-
NORTHEAST KENTUCKY

CITY           SKY/WX    TMP DP  RH WIND       PRES   REMARKS
LEXINGTON      SUNNY     50  29  44 SW21G28   30.10F
COVINGTON      SUNNY     49  28  44 SW15      30.04F
FRANKFORT      SUNNY     51  27  39 SW13G23   30.08F
$$

KYZ054-064>069-076>088-106>120-162100-
SOUTHEAST KENTUCKY

CITY           SKY/WX    TMP DP  RH WIND       PRES   REMARKS
JACKSON        SUNNY     50  27  40 VRB5      30.13F
LONDON         SUNNY     48  27  44 S8G20     30.15F
SOMERSET       SUNNY     48  28  46 W10G17    30.17F
MIDDLESBORO    SUNNY     47  28  47 S10       30.18F
MONTICELLO     CLEAR     50  30  46 SW16G22   30.18F
$$




USA.gov is the U.S. government's official web portal to all federal, state and local government web resources and services.